User: anonymous   Login
Location: Caltech
(34.1382°N, 118.1253°W)
Time: 00:02:30
(UTC-07:00)
Language:

Iridium 14 - Orbit

View from above orbital plane
View from above orbital plane
View from above satellite
View from above satellite

Ground track
Ground track

The orbit data is extracted from the following two-line orbital elements,

1 25777U 99032A   14303.46027582  .00000557  00000-0  19173-3 0  1359
2 25777 086.3950 265.4829 0001812 104.5578 011.6645 14.34222626816975
Epoch (UTC): 30 October 2014 11:02:47
Eccentricity: 0.0001812
inclination: 86.3950°
perigee height: 776 km
apogee height: 779 km
right ascension of ascending node: 265.4829°
argument of perigee: 104.5578°
revolutions per day: 14.34222626
mean anomaly at epoch: 11.6645°
orbit number at epoch: 81697

The dashed part of the orbit path shows where the satellite is in the earth's shadow,  

DLR